450  
ASUS44 KLZK 181815  
RWRLZK  
 
WEATHER ROUNDUP FOR ARKANSAS  
NATIONAL WEATHER SERVICE LITTLE ROCK AR  
100 PM CDT MON JUN 18 2018  
 
NOTE: "FAIR" INDICATES FEW OR NO CLOUDS BELOW 12,000 FEET WITH NO  
SIGNIFICANT WEATHER AND/OR S TO VISIBILITY
.  
 
ARZ001-003-010-029-181900-  
NORTHWEST ARKANSAS  
 
CITY SKY/WX TMP DP RH WIND PRES REMARKS
 
FAYETTEVILLE PTSUNNY 83 68 60 S12 30.10F HX 86  
6HR MIN TEMP: 75; 6HR MAX TEMP: 84;  
 
FORT SMITH PTSUNNY 89 68 49 S9G20 30.06F HX 93  
6HR MIN TEMP: 78; 6HR MAX TEMP: 90;  
 
HARRISON CLOUDY 84 67 56 S9 30.13F HX 86  
6HR MIN TEMP: 75; 6HR MAX TEMP: 88;  
 
BENTONVILLE CLOUDY 85 68 56 SE8 30.12F HX 88  
6HR MIN TEMP: 76; 6HR MAX TEMP: 85;  
 
ROGERS CLOUDY 85 68 56 S10 30.11F HX 88  
6HR MIN TEMP: 75; 6HR MAX TEMP: 85;  
 
SILOAM SPGS CLOUDY 85 69 58 S9 30.10F HX 89  
6HR MIN TEMP: 74; 6HR MAX TEMP: 86;  
 
HIGHFILL PTSUNNY 86 67 52 S12 30.10F HX 89  
6HR MIN TEMP: 75; 6HR MAX TEMP: 87;  
 
SPRINGDALE PTSUNNY 84 68 58 S16 30.12F HX 87  

 
 
ARZ004-005-016-181900-  
NORTH CENTRAL ARKANSAS  
 
CITY SKY/WX TMP DP RH WIND PRES REMARKS
 
BATESVILLE MOSUNNY 89 68 49 S12G20 30.11F HX 93  
6HR MIN TEMP: 76; 6HR MAX TEMP: 90;  
 
FLIPPIN CLOUDY 86 71 60 S6 30.11F HX 91  
6HR MIN TEMP: 77; 6HR MAX TEMP: 86;  
 
MTN HOME PTSUNNY 86 70 58 SW14 30.11F HX 90  
6HR MIN TEMP: 75; 6HR MAX TEMP: 86;  
 

 
 
ARZ040-041-181900-  
WEST CENTRAL ARKANSAS  
 
CITY SKY/WX TMP DP RH WIND PRES REMARKS
 
MENA MOSUNNY 90 68 48 S6 30.10F HX 93  
MOUNT IDA PTSUNNY 84 71 65 CALM 30.08F HX 89  
6HR MIN TEMP: 75; 6HR MAX TEMP: 87;  
 

 
 
ARZ009-017-025-026-028-181900-  
NORTHEAST ARKANSAS  
 
CITY SKY/WX TMP DP RH WIND PRES REMARKS
 
CORNING FAIR 90 75 62 SW12 30.11F HX 100  
JONESBORO FAIR 91 74 57 SW10 30.11F HX 100  
6HR MIN TEMP: 78; 6HR MAX TEMP: 91;  
 
NEWPORT FAIR 91 70 49 SW10G20 30.11F HX 96  
6HR MIN TEMP: 76; 6HR MAX TEMP: 91;  
 
WALNUT RIDGE N/A 90 72 55 W13 30.10F HX 97  
6HR MIN TEMP: 77; 6HR MAX TEMP: 91;  
 
BLYTHEVILLE FAIR 89 69 51 VRB7 30.12F HX 93  
6HR MIN TEMP: 79; 6HR MAX TEMP: 90;  
 

 
 
ARZ022-023-033-042-044-181900-  
CENTRAL ARKANSAS  
 
CITY SKY/WX TMP DP RH WIND PRES REMARKS
 
LITTLE ROCK PTSUNNY 85 71 63 S6 30.10F HX 90  
6HR MIN TEMP: 74; 6HR MAX TEMP: 88;  
 
N LITTLE ROCK N/A 87 71 59 S5 30.11F HX 92  
6HR MIN TEMP: 75; 6HR MAX TEMP: 87;  
 
JACKSONVILLE PTSUNNY 91 69 47 S3 30.10F HX 96  
6HR MIN TEMP: 77; 6HR MAX TEMP: 91;  
 
CONWAY CLEAR 91 70 49 SW9 30.08F HX 97  
SEARCY PTSUNNY 89 73 59 VRB5 30.12F HX 97  
6HR MIN TEMP: 75; 6HR MAX TEMP: 90;  
 
HOT SPRINGS MOSUNNY 90 68 48 S8G16 30.09F HX 94  
6HR MIN TEMP: 77; 6HR MAX TEMP: 91;  
 
RUSSELLVILLE PTSUNNY 88 71 57 VRB3 30.08F HX 94  
6HR MIN TEMP: 76; 6HR MAX TEMP: 88;  
 
CLINTON PTSUNNY 88 70 55 VRB5 30.11F HX 92  

 
 
ARZ036-181900-  
EAST ARKANSAS  
 
CITY SKY/WX TMP DP RH WIND PRES REMARKS
 
WEST MEMPHIS FAIR 91 69 48 S10 30.11F HX 96  
6HR MIN TEMP: 78; 6HR MAX TEMP: 92;  
 

 
 
ARZ050-053-066-070-073-181900-  
SOUTHWEST ARKANSAS  
 
CITY SKY/WX TMP DP RH WIND PRES REMARKS
 
ARKADELPHIA FAIR 90 71 53 VRB5 30.08F HX 96  
6HR MIN TEMP: 78; 6HR MAX TEMP: 92;  
 
CAMDEN FAIR 93 68 43 VRB6G21 30.07F HAZE HX 97  
TEXARKANA PTSUNNY 88 72 58 S12 30.06F HX 94  
6HR MIN TEMP: 71; 6HR MAX TEMP: 88;  
 
EL DORADO LGT RAIN 77 71 82 S16G33 30.11R  
6HR MIN TEMP: 73; 6HR MAX TEMP: 92; 6HR PCP: TRACE;  
 
DE QUEEN MOSUNNY 88 72 58 SE9G17 30.05F HX 94  
6HR MIN TEMP: 73; 6HR MAX TEMP: 89;  
 

 
 
ARZ056-057-069-181900-  
SOUTHEAST ARKANSAS  
 
CITY SKY/WX TMP DP RH WIND PRES REMARKS
 
PINE BLUFF FAIR 90 72 55 SE8 30.10F HX 97  
6HR MIN TEMP: 73; 6HR MAX TEMP: 90;  
 
STUTTGART FAIR 90 70 51 SE8G18 30.12F HX 95  
6HR MIN TEMP: 77; 6HR MAX TEMP: 90;  
 
MONTICELLO FAIR 91 71 51 S7 30.10F HX 97  
6HR MIN TEMP: 73; 6HR MAX TEMP: 91;  
 

 
 
 
 
CLICK HERE TO GO TO PREVIOUS BULLETINS.

The Nexlab AR Page Main Text Page